Weather History for Anchorage, AK

Change the Weather History Date:

Thursday, December 19, 2013

  Actual Average Record
Temperature  
Mean Temperature 12 °F 19 °F  
Max Temperature 15 °F 25 °F 44 °F (1985)
Min Temperature 8 °F 13 °F -18 °F (1961)
Degree Days  
Heating Degree Days 53    
Month to date heating degree days 934  
Since 1 July heating degree days 3744  
Cooling Degree Days 0    
Month to date cooling degree days 0  
Year to date cooling degree days 21  
Moisture  
Dew Point 10 °F    
Average Humidity 83    
Maximum Humidity 92    
Minimum Humidity 73    
Precipitation  
Precipitation 0.22 in 0.03 in 0.34 in (2003)
Month to date precipitation 1.34 0.71  
Year to date precipitation 25.71 16.18  
Snow  
Snow 2.70 in 0.50 in 7.30 in (2003)
Month to date snowfall 20.2 10.6  
Since 1 July snowfall 31.4 32.0  
Snow Depth 20.00 in    
Sea Level Pressure  
Sea Level Pressure 29.72 in    
Wind  
Wind Speed 7 mph (NNE)    
Max Wind Speed 17 mph    
Max Gust Speed 24 mph    
Visibility 8 miles    
Events Fog , Snow    
T = Trace of Precipitation, MM = Missing Value Source: NWS Daily Summary

Daily Weather History Graph

Daily Weather History Graph

Search for Another Location

Airport:

Trip Planner

Search our weather history database for the weather conditions in past years. The results will help you decide how hot, cold, wet, or windy it might be!

Date:

Astronomy

Dec. 19, 2013 Rise Set
Actual Time 10:13 AM AKST 3:41 PM AKST
Civil Twilight 9:11 AM AKST 4:43 PM AKST
Nautical Twilight 8:11 AM AKST 5:43 PM AKST
Astronomical Twilight 7:17 AM AKST 6:37 PM AKST
Moon 7:03 PM AKST (12/19) 10:55 AM AKST (12/19)
Length of Visible Light 7h 32m
Length of Day
5h 28m
Waning Gibbous, 95% of the Moon is Illuminated
Dec 19
Waning Gibbous
Dec 25
Last Quarter
Jan 1
New
Jan 7
First Quarter
Jan 15
Full

Hourly Weather History & Observations

Time (AKST) Temp. Windchill Dew Point Humidity Pressure Visibility Wind Dir Wind Speed Gust Speed Precip Events Conditions
12:53 AM 10.0 °F -7.1 °F 6.1 °F 84% 29.78 in 0.5 mi North 16.1 mph 24.2 mph 0.06 in Fog , Snow Snow
1:53 AM 10.9 °F -6.5 °F 8.1 °F 88% 29.78 in 0.5 mi North 17.3 mph - 0.06 in Fog , Snow Snow
2:53 AM 12.0 °F -2.0 °F 8.1 °F 84% 29.75 in 0.5 mi North 11.5 mph - 0.05 in Fog , Snow Snow
2:59 AM 12.2 °F -1.8 °F 8.6 °F 85% 29.74 in 1.2 mi North 11.5 mph - 0.01 in Snow Snow
3:24 AM 12.2 °F -2.5 °F 8.6 °F 85% 29.73 in 2.0 mi North 12.7 mph - 0.01 in Snow Light Snow
3:53 AM 12.9 °F -1.6 °F 9.0 °F 84% 29.75 in 4.0 mi North 12.7 mph 19.6 mph 0.01 in Snow Light Snow
4:53 AM 14.0 °F -0.2 °F 10.0 °F 84% 29.73 in 10.0 mi North 12.7 mph - 0.00 in   Overcast
5:53 AM 15.1 °F 0.5 °F 10.9 °F 84% 29.74 in 10.0 mi North 13.8 mph - 0.00 in   Overcast
6:53 AM 15.1 °F 2.5 °F 10.9 °F 84% 29.75 in 10.0 mi North 10.4 mph - N/A   Overcast
7:53 AM 16.0 °F 6.3 °F 10.9 °F 81% 29.74 in 10.0 mi North 6.9 mph - N/A   Overcast
8:53 AM 15.1 °F 5.2 °F 10.9 °F 84% 29.73 in 10.0 mi North 6.9 mph - N/A   Mostly Cloudy
9:53 AM 14.0 °F 3.9 °F 10.0 °F 84% 29.72 in 10.0 mi North 6.9 mph - N/A   Scattered Clouds
10:53 AM 15.1 °F 4.2 °F 9.0 °F 77% 29.72 in 10.0 mi NNE 8.1 mph - N/A   Scattered Clouds
11:53 AM 15.1 °F 7.7 °F 9.0 °F 77% 29.73 in 10.0 mi NNE 4.6 mph - N/A   Scattered Clouds
12:53 PM 14.0 °F 8.2 °F 10.0 °F 84% 29.74 in 10.0 mi ENE 3.5 mph - N/A   Scattered Clouds
1:53 PM 12.9 °F 2.6 °F 9.0 °F 84% 29.73 in 10.0 mi ENE 6.9 mph - N/A   Scattered Clouds
2:53 PM 12.9 °F 6.9 °F 9.0 °F 84% 29.71 in 10.0 mi ENE 3.5 mph - N/A   Mostly Cloudy
3:53 PM 12.0 °F 5.9 °F 9.0 °F 88% 29.70 in 10.0 mi ENE 3.5 mph - N/A   Mostly Cloudy
4:53 PM 15.1 °F - 10.9 °F 84% 29.69 in 10.0 mi Calm Calm - 0.00 in Snow Light Snow
5:53 PM 12.9 °F 6.9 °F 10.0 °F 88% 29.68 in 10.0 mi East 3.5 mph - 0.00 in   Mostly Cloudy
6:53 PM 12.0 °F - 9.0 °F 88% 29.68 in 10.0 mi Calm Calm - N/A   Overcast
7:53 PM 15.1 °F 9.4 °F 10.9 °F 84% 29.67 in 10.0 mi East 3.5 mph - N/A   Overcast
8:53 PM 14.0 °F 6.5 °F 10.0 °F 84% 29.66 in 10.0 mi ENE 4.6 mph - N/A   Overcast
9:53 PM 15.1 °F - 12.0 °F 88% 29.66 in 10.0 mi Calm Calm - N/A   Mostly Cloudy
10:53 PM 16.0 °F - 12.0 °F 84% 29.67 in 10.0 mi Calm Calm - N/A   Mostly Cloudy
11:53 PM 16.0 °F 7.4 °F 12.0 °F 84% 29.68 in 10.0 mi East 5.8 mph - N/A   Mostly Cloudy